sat.trackr.live / text

‹ back to catalog

STARLINK-4211

NORAD 52873 · 2022-062AV

PAYLOAD ACTIVE UNKNOWN

§ Identity

Operator
Country
US
Launch date
2022-06-17
Launch site
AFETR
Launch vehicle
Mass (kg)
RCS (m²)

Purposes: comms

External: N2YO · Heavens-Above · Gunter

§ Orbital elements

Epoch: 2026-09-19T07:44:28.153248Z

Period
93.85 min
Inclination
53.1599°
Eccentricity
0.0001317
Mean motion
15.34384529 rev/d
Perigee alt
461.8 km
Apogee alt
463.7 km
Semi-major
6,840.9 km
B*
4.9203e-5
RAAN
208.9202°
Arg perigee
89.6399°
Mean anomaly
270.4754°
Rev number
23,551

§ Raw data

STARLINK-42111 52873U 22062AV  26262.32254807  .00001286  00000+0  49203-4 0  99942 52873  53.1599 208.9202 0001317  89.6399 270.4754 15.34384529235517

JSON: /api/v1/satellites/52873 · /tle

For live sub-satellite position, see the globe view (requires WebGL).

§ Visibility from observer

Set your observer location to see the next 7 days of passes ≥ 10°. The values pass through the URL so the page stays shareable.

No JS? Fill the form by hand. The geolocation button needs JavaScript.